Warning: Javascript must be enabled to use all the features on this page!


Page Loading - Please Wait...

Click to hideNews Bulletins

Peak Streamflow for the Nation

USGS 01529950 CHEMUNG RIVER AT CORNING NY

Steuben County, New York
Hydrologic Unit Code 02050105
Latitude  42°08'47.1", Longitude  77°03'27.0" NAD83
Drainage area 2,006  square miles
Gage datum 899.46 feet above NAVD88
Output formats
Table
Graph
Tab-separated file
peakfq (watstore) format
Reselect output format
Water
Year
Date Gage
Height
(feet)
Stream-
flow
(cfs)
1946 1946-05-28 37.703 110,0007
1972 1972-06-23 40.71 228,0007,9
1975 1975-09-26 32.46 127,000
1976 1976-02-17 25.16 47,800
1977 1977-09-25 23.44 33,400
1978 1978-03-22 24.482 41,700
1979 1979-03-05 24.96 46,000
1980 1979-11-26 23.60 34,7006
1981 1981-02-20 21.33 20,2006
1982 1981-10-28 22.52 27,3006
1983 1983-03-21 20.52 16,0006
1984 1984-02-14 24.85 45,0006
1985 1985-02-25 20.502 15,8006
1986 1986-03-15 23.11 31,7006
1987 1987-04-04 21.40 21,0006
1988 1988-05-19 21.92 24,0006
1989 1989-06-21 23.06 29,9006
1990 1990-02-17 21.68 21,2006
1991 1990-10-23 23.52 32,8006
1992 1992-03-27 21.77 22,7006
1993 1993-03-30 23.31 31,3006
1994 1994-03-25 24.08 36,8006
1995 1995-01-20 22.93 28,8006
1996 1996-01-19 25.93 61,0002,6
1997 1996-11-08   36,0002,6
1998 1998-01-08 24.05 36,6006
1999 1999-01-24 21.932 22,6006
2000 2000-02-28 22.08 23,5006
2001 2001-04-09 22.86 28,3006
2002 2002-05-14 21.08 18,0006
2003 2003-07-22 24.49 40,0006
2004 2004-09-18 24.77 42,2006
2005 2005-04-02 24.09 37,3006
2006 2005-11-30 24.17 38,0006
2007 2007-03-15 24.47 40,3006
2008 2008-02-06 23.80 35,2006
2009 2009-03-09 22.07 23,8006
2010 2010-01-25 23.40 32,4006
2011 2011-04-28 23.63 34,0006
2012 2011-10-20 20.68 16,4006
2013 2013-01-31 22.31 25,3006
2014 2014-05-16 24.34 39,3006
2015 2015-04-08 20.94 17,7006
2016 2016-02-25 22.00 23,4006
2017 2017-05-06 22.12 24,1006
2018 2018-04-16 21.672 21,5006
2019 2018-12-22 23.12 30,4006
2020 2020-05-01 22.43 26,0006
?
  Peak Gage-Height Qualification Codes.
?
  Peak Streamflow Qualification Codes.